COSMOS 249 DEB, 3755

Orbit data source: Space-Track

COSMOS 249 DEB, 3755 is space debris in LEO originally from a launch on Sun, 20 Oct 1968 UTC launched from the Tyuratam Missile And Space Complex (TTMTR). Debris objects in space refer to the collection of defunct objects orbiting the Earth. Examples of debris include non-operational satellites, rocket bodies, and fragments generated from explosions, collisions, or faulty payload assembly.

Loading next visibility...
Identifier
3755, 1968-091AT
Orbit
LEO
Country
Flag of CISCIS
Related business
Manufacturer
Unknown
Mission
Spacecraft
Bus & Motor
Unknown
Mass
Unknown
Launch date (UTC)
1968-10-20 (58 years ago)
Launch vehicle
Unknown
Launch site
Tyuratam Missile And Space Complex (TTMTR)
Object type
Payload
Rocket body
Debris
Shape & HBR
Unknown shape, 0.1 m
Radar Cross Section
Medium (>0.1 m² and <1 m²)

Expand to show TLE details & history
Last TLE update: 2 days ago

TLE from 2 days ago
0 COSMOS 249 DEB
1 03755U 68091AT  26201.04479873  .00000840  00000-0  10684-2 0  9990
2 03755  62.2429  65.7975 0778402 123.2486 244.5571 12.81689511647669
Epoch: 2026-07-20T01:04Z
TLE epoch observation values (Epoch: 2026-07-20T01:04:30.610Z)
Latitude
-0.00005°
Longitude
111.83544°
Altitude
1,630.447 km
Speed
6.921 km/s
True Right ascension
04h 23m 11s
True Declination
0° 00' 00"
Sunlit
Object was in daylight at epoch
Visualization orbit readout
Latitude
Unknown
Longitude
Unknown
Altitude
Unknown
Speed
Unknown
Apparent Right ascension
Unknown
Apparent Declination
Unknown
Sunlit
N/A
Visualization observer readout
Local Sidereal Time
05:28:55
Azimuth
Unknown
Elevation
Unknown
Doppler factor
Unknown
Orbital elements
Apogee altitude
1,933.973 km
Perigee altitude
733.393 km
Semi-major axis
7,711.82 km
Eccentricity
0.07784
Inclination
62.2429°
RAAN
65.7975°
Arg. of periapsis
123.2486°
True anomaly
236.84923°
Mean anomaly
244.5571°
Eccentric anomaly
240.66893°
Mean motion
3.20485 °/min
Orbital period
112.33 mins
BSTAR
0.0010684
Loading maneuver chart data...
Computing Atmospheric mass density...

Documentation

Showing up to 5 results
|